Regional Weather Roundup
Issued by NWS

Home | Current Version | Previous Version | Text Only | Print | Product List | Glossary Off
Versions: 1 2 3 4 5 6 7 8 9 10 11 12 13 14 15 16 17 18 19 20 21 22 23 24 25 26 27 28 29 30 31 32 33 34 35 36 37 38 39 40 41 42 43 44 45 46 47 48 49 50

423
ASUS45 KCYS 251810
RWRWY

WYOMING REGIONAL WEATHER ROUNDUP
NATIONAL WEATHER SERVICE CHEYENNE WY
1200 PM MDT MON SEP 25 2017

NOTE:  "FAIR" INDICATES FEW OR NO CLOUDS BELOW 12,000 FEET
WITH NO SIGNIFICANT WEATHER AND/OR OBSTRUCTIONS TO VISIBILITY.

WYZ001-251900-
YELLOWSTONE NATIONAL PARK

CITY           SKY/WX    TMP DP  RH WIND       PRES   REMARKS
LK YELLOWSTONE NOT AVBL
W YELLOWSTONE  NOT AVBL

$$
WYZ002>013-054>058-071-098>099-251900-
NORTHERN WYOMING

CITY           SKY/WX    TMP DP  RH WIND       PRES   REMARKS
JACKSON        CLOUDY    43  36  76 S7        30.13F
CODY           FAIR      47  32  56 CALM      30.10F
GREYBULL       CLOUDY    47  42  83 CALM      30.10F
6HR MIN TEMP:  43; 6HR MAX TEMP:  47; 6HR PCP:  0.05;

WORLAND        CLOUDY    49  42  77 NE6       30.10F
6HR MIN TEMP:  43; 6HR MAX TEMP:  49;

SHERIDAN       PTSUNNY   51  41  68 VRB5      30.10F
6HR MIN TEMP:  43; 6HR MAX TEMP:  51; 6HR PCP:  0.16;

BUFFALO        CLOUDY    45  38  76 NE6       30.11F
6HR MIN TEMP:  39; 6HR MAX TEMP:  45; 6HR PCP:  0.13;

GILLETTE       CLOUDY    44  39  82 W3        30.11F
6HR MIN TEMP:  40; 6HR MAX TEMP:  44;

HULETT         CLOUDY    45  39  81 SW6       30.13S
NEWCASTLE      CLOUDY    43  43 100 S9        30.14F FOG

$$
WYZ014>020-022>026-101>103-251900-
CENTRAL WYOMING

CITY           SKY/WX    TMP DP  RH WIND       PRES   REMARKS
BIG PINEY      CLOUDY    42  35  76 N8        30.14S
6HR MIN TEMP:  33; 6HR MAX TEMP:  42;

PINEDALE       CLOUDY    37  32  81 CALM      30.14F
DUBOIS         CLOUDY    41  30  65 NW12      30.10S
LANDER         PTSUNNY   45  35  68 E3        30.10F
6HR MIN TEMP:  37; 6HR MAX TEMP:  48;

RIVERTON       CLOUDY    44  33  65 W3        30.12S
6HR MIN TEMP:  37; 6HR MAX TEMP:  45; 6HR PCP: TRACE;

CASPER         CLOUDY    41  37  86 SW6       30.12S
6HR MIN TEMP:  35; 6HR MAX TEMP:  41; 6HR PCP: TRACE;

DOUGLAS        CLOUDY    47  39  74 CALM      30.12S
6HR MIN TEMP:  38; 6HR MAX TEMP:  47;


$$
WYZ021-027>030-104>119-251900-
SOUTHERN WYOMING

CITY           SKY/WX    TMP DP  RH WIND       PRES   REMARKS
EVANSTON       CLOUDY    42  33  70 S6        30.16S
6HR MIN TEMP:  33; 6HR MAX TEMP:  43;

FORT BRIDGER   MOCLDY    46  34  61 W12       30.18F
ROCK SPRINGS   CLOUDY    40  33  76 SW12      30.14S WCI  33
6HR MIN TEMP:  35; 6HR MAX TEMP:  42; 6HR PCP: TRACE;

DIXON          CLOUDY    44  30  59 CALM      30.16S
RAWLINS        CLOUDY    41  34  76 W7        30.13S
6HR MIN TEMP:  34; 6HR MAX TEMP:  42;

SARATOGA       CLOUDY    43  32  65 W8G18     30.13F
LARAMIE        FAIR      45  33  63 NW9       30.10F
6HR MIN TEMP:  28; 6HR MAX TEMP:  45;

CHEYENNE       CLOUDY    46  37  71 E6        30.11F
6HR MIN TEMP:  37; 6HR MAX TEMP:  48;

TORRINGTON     CLOUDY    48  39  71 CALM      30.11F
6HR MIN TEMP:  42; 6HR MAX TEMP:  48;

PINE BLUFFS    CLOUDY    45  41  87 MISG      30.12F

$$




USA.gov is the U.S. government's official web portal to all federal, state and local government web resources and services.